Home   Weather   Melk   Past weeks

Flag for Austria Past Weather in Melk, Lower Austria, Austria — Yesterday and Last 2 Weeks

Now
71 °F

Mild.


Feels Like: 76 °F
Forecast: 54 / 76 °F
Wind: 2 mph from Northwest

Location: Amstetten

Current Time: Sep 29, 2016 at 2:03:39 PM

Latest Report: Sep 29, 2016 at 1:00 PM


Visibility: N/A

Pressure: 30.20 "Hg

Humidity: 58%

Dew Point: 56 °F

Location of MelkLocation

Past Weather in Melk — Graph

°F

Melk Temperature Yesterday

Maximum temperature yesterday: 69 °F (at 5:00 PM)
Minimum temperature yesterday: 46 °F (at 6:00 AM)
Average temperature yesterday: 57 °F

High & Low Weather Summary for the Past Weeks

 TemperatureHumidityPressure
High83 °F (Sep 15, 5:00 PM)100% (Sep 16, 11:00 PM)30.43 "Hg (Sep 16, 11:00 PM)
Low42 °F (Sep 23, 7:00 AM)44% (Sep 23, 5:00 PM)29.78 "Hg (Sep 17, 3:00 AM)
Average58 °F85%30.09 "Hg
* Reported Sep 14 12:00 PM — Sep 29 12:00 PM, Melk, Weather by CustomWeather, © 2016

Note: Actual official high and low records may vary slightly from our data, if they occured in-between our weather recording intervals... More about our weather records

Advertising

Melk Weather History for the Previous 24 Hours

Scroll right to see more
 ConditionsComfort  
Time TempWeatherWind HumidityBarometerVisibility
12:00 PM
Thu, Sep 29
69 °FMild.2 mph65%30.23 "HgN/A
10:00 AM62 °FCool.2 mph77%30.29 "HgN/A
9:00 AM57 °FCool.1 mph90%30.30 "HgN/A
8:00 AM53 °FPassing clouds.2 mph95%30.32 "HgN/A
7:00 AM53 °FCool.1 mph98%30.32 "HgN/A
6:00 AM54 °FCool.No wind95%30.33 "HgN/A
5:00 AM55 °FCool.1 mph89%30.32 "HgN/A
4:00 AM55 °FCool.1 mph92%30.32 "HgN/A
3:00 AM56 °FCool.2 mph91%30.34 "HgN/A
2:00 AM56 °FCool.2 mph91%30.34 "HgN/A
1:00 AM56 °FCool.2 mph91%30.34 "HgN/A
12:00 AM56 °FCool.2 mph92%30.34 "HgN/A
11:00 PM
Wed, Sep 28
58 °FCool.2 mph91%30.33 "HgN/A
10:00 PM59 °FCool.2 mph91%30.34 "HgN/A
9:00 PM59 °FCool.1 mph92%30.34 "HgN/A
8:00 PM61 °FCool.1 mph87%30.33 "HgN/A
7:00 PM62 °FCool.1 mph85%30.32 "HgN/A
6:00 PM67 °FMild.1 mph72%30.31 "HgN/A
5:00 PM69 °FMild.1 mph64%30.30 "HgN/A
4:00 PM68 °FMild.1 mph64%30.31 "HgN/A
3:00 PM68 °FMild.2 mph64%30.32 "HgN/A
2:00 PM66 °FMild.2 mph66%30.35 "HgN/A
Weather by CustomWeather, © 2016

See weather overviewHow to use our weather pages